RH
22 19 16 11 8 8 8 10 9 9 9 8 15 31 36 32 31 20 14 13 10 8 7 9 18 21 25 27 34 46 57 60 62 73 76 75 67 54 32 46 53 34 31
23 20 17 13 9 8 10 11 9 8 8 11 22 31 31 26 15 14 14 13 10 9 9 11 14 17 19 23 40 47 40 38 41 43 43 48 55 63 52 37 51 62 38
24 21 17 13 10 10 11 10 9 9 10 17 23 28 26 13 12 16 17 14 10 10 13 15 16 14 12 13 18 18 17 17 20 27 42 48 50 62 73 73 63 66 68
26 22 19 16 13 11 11 10 10 11 11 12 12 13 12 12 16 20 18 13 10 12 15 16 13 12 12 12 8 7 8 14 20 20 21 21 22 31 53 87 86 77 94
34 26 21 18 16 13 12 12 13 12 12 13 15 14 12 13 20 20 16 12 12 15 16 13 13 12 8 7 8 9 10 11 12 12 12 12 16 24 36 75 99 89 89
47 44 24 18 18 15 13 13 14 12 13 14 14 14 12 17 20 19 14 12 13 15 13 13 11 7 7 8 10 9 10 11 12 14 15 15 14 15 16 67 92 99 100
37 33 24 20 18 16 14 14 15 13 14 15 15 13 15 20 20 17 13 13 14 14 13 10 8 8 10 10 10 12 12 13 15 14 11 12 14 13 14 18 76 89 99
37 31 25 21 19 17 16 18 19 15 15 16 14 15 24 22 18 13 14 14 15 14 11 8 9 10 12 12 14 14 14 18 13 12 12 12 21 26 26 24 36 85 80
36 31 26 21 27 31 19 20 18 16 18 17 15 24 28 24 20 14 15 14 13 10 8 8 10 11 13 16 16 16 20 16 14 15 12 16 26 37 42 50 38 98 96
34 30 25 38 44 30 22 21 20 22 24 17 24 30 28 24 17 13 14 14 11 9 10 13 14 16 19 20 17 22 19 17 16 13 12 9 20 36 39 74 98 100 100
38 34 49 51 29 26 26 25 27 23 18 27 33 29 25 17 12 16 16 13 10 12 11 12 15 18 21 18 19 20 19 17 13 9 10 19 33 49 57 36 67 97 100
44 62 74 38 35 31 29 28 24 26 29 35 31 28 21 12 16 16 13 10 11 15 14 15 17 18 15 15 20 21 20 12 9 11 12 21 32 46 74 72 51 89 74
71 54 39 38 39 36 30 24 30 36 34 32 27 20 10 15 16 13 9 10 13 16 16 17 17 15 14 17 22 22 10 7 7 11 18 32 42 64 72 97 82 68 79
43 42 44 44 38 31 28 36 38 37 30 32 18 10 16 16 12 10 10 10 11 15 20 19 16 14 16 20 23 17 6 7 7 13 17 18 32 54 90 80 96 38 63
47 45 40 36 32 28 37 35 32 28 37 18 12 16 15 12 14 14 13 15 16 18 20 18 17 19 24 27 26 12 7 8 9 10 13 19 44 58 44 80 78 38 32
46 43 40 37 30 29 30 27 30 40 19 12 16 15 11 13 15 16 17 19 21 21 18 18 19 23 30 32 26 10 10 10 11 12 13 19 54 49 62 57 44 96 100
54 47 45 45 40 33 34 41 45 20 12 16 15 11 13 15 17 18 21 21 20 18 18 19 22 27 34 31 13 13 13 10 10 12 18 26 33 41 58 84 98 97 87
54 52 52 45 38 43 45 48 16 13 16 15 12 11 12 14 19 22 23 22 19 17 18 19 21 31 27 14 16 16 15 14 14 14 14 15 18 27 47 55 79 79 82
64 61 56 52 49 52 45 18 14 16 16 14 12 12 15 20 20 22 21 19 18 19 18 17 16 14 16 20 20 18 18 19 19 18 17 15 14 15 21 27 52 87 100
64 64 63 59 58 40 20 15 17 18 15 13 16 16 18 18 21 20 18 18 19 18 16 15 17 20 24 24 24 23 23 24 24 23 21 19 17 14 14 18 25 28 32
60 63 59 52 31 21 17 19 20 17 16 20 18 17 19 23 22 20 18 18 18 18 18 20 23 26 29 31 33 31 29 28 28 25 23 21 18 17 15 14 13 13 15
40 40 35 27 20 20 21 23 19 20 21 20 17 18 24 25 23 20 20 19 19 21 22 25 31 40 45 45 45 42 38 34 30 28 25 23 22 21 19 18 16 16 16
35 28 24 32 24 28 32 25 29 23 22 20 21 25 28 29 27 24 23 23 24 24 26 31 41 46 51 48 45 47 44 38 34 33 32 30 28 27 25 24 21 20 20
63 33 33 31 28 32 44 34 28 22 22 23 26 28 34 35 34 31 29 28 29 29 32 39 43 45 57 58 52 49 46 41 39 39 36 32 31 30 31 30 27 24 24
93 75 59 48 63 45 36 31 27 25 25 27 32 36 37 41 42 43 41 36 35 38 42 46 51 66 72 68 58 50 46 46 47 42 37 35 34 35 37 39 36 31 27
98 97 94 69 47 36 34 29 33 32 29 33 38 38 43 49 48 48 53 56 61 66 67 68 68 69 71 74 73 65 57 58 59 55 50 50 52 52 50 50 50 48 42
Wind_Speed
20 20 21 21 21 20 21 22 23 24 25 26 27 29 30 30 31 33 35 37 38 39 38 37 36 36 35 37 36 36 35 34 34 34 34 35 34 33 34 34 35 34 32
23 23 23 23 22 23 24 25 25 26 27 28 30 32 33 33 34 35 38 40 40 40 39 37 36 36 37 37 37 37 36 36 36 36 37 37 36 35 34 34 35 36 35
25 26 25 25 25 25 26 27 27 28 29 31 34 35 36 36 37 38 41 43 43 41 39 38 37 37 37 38 37 36 37 38 37 37 35 35 35 35 36 37 37 38 36
28 27 27 28 28 28 29 29 30 31 32 34 36 37 38 38 38 41 44 45 43 42 41 40 39 38 39 38 37 37 37 37 36 36 36 38 38 37 38 38 39 38 38
31 30 30 31 30 30 31 31 32 33 35 37 39 40 39 38 40 43 45 44 43 42 42 42 42 40 38 37 37 38 38 36 37 39 40 40 40 40 40 39 38 37 38
32 31 31 33 33 33 33 33 35 37 39 41 41 40 40 40 42 46 46 45 43 42 42 43 42 40 38 37 37 37 37 39 40 41 42 43 44 44 43 40 41 41 41
36 35 34 35 36 36 36 37 38 40 42 43 43 41 39 41 44 48 46 44 42 42 42 42 40 38 38 37 39 40 41 42 43 42 42 46 48 49 49 47 45 44 42
39 38 37 36 36 37 38 41 43 43 43 45 44 41 39 43 45 47 45 44 44 44 44 41 38 39 37 39 42 42 44 43 41 43 47 51 49 51 53 51 50 48 45
42 41 39 38 39 42 42 44 44 44 45 45 42 41 44 46 47 45 44 43 43 42 42 39 40 39 41 42 43 45 43 42 44 48 51 52 52 54 48 49 57 53 50
43 42 41 42 45 46 46 45 45 45 46 42 41 44 47 49 48 45 43 43 42 39 39 41 39 40 41 43 45 43 42 43 46 49 51 37 37 40 50 55 55 54 58
46 44 46 47 47 47 45 45 45 45 41 42 44 47 49 48 45 45 44 43 40 40 39 38 40 42 44 45 43 41 41 44 45 45 34 40 39 41 39 45 61 56 48
47 49 49 47 46 45 45 46 44 44 44 45 47 50 49 45 45 46 44 40 38 39 41 43 43 44 44 44 42 40 42 40 41 32 37 33 37 39 42 45 50 56 67
51 48 46 45 45 46 45 44 45 45 45 47 49 49 45 45 45 45 43 41 39 41 44 44 45 45 44 42 39 39 35 36 33 31 35 33 40 43 46 47 46 41 41
46 47 47 46 45 44 43 44 46 48 49 50 48 45 45 45 44 43 42 42 42 44 45 45 45 45 42 39 36 35 32 34 32 28 34 37 39 36 32 46 31 25 23
48 47 46 45 44 44 45 47 48 50 50 47 44 44 45 44 42 42 41 42 44 44 44 45 43 42 39 35 33 31 31 31 30 31 36 38 33 32 30 21 19 16 26
46 45 45 45 45 46 47 48 49 51 46 43 42 42 42 41 42 42 42 43 44 45 44 43 42 39 35 32 31 30 30 29 29 29 33 32 27 29 23 13 17 16 17
46 46 47 47 47 47 49 50 49 45 43 42 43 41 39 40 40 41 41 42 42 43 42 40 37 34 30 29 28 29 28 28 28 29 28 28 28 26 21 15 13 15 18
48 48 47 46 47 49 50 48 44 41 41 42 41 40 39 39 38 39 40 41 41 40 37 36 33 28 25 25 29 28 27 28 28 29 30 30 28 23 22 19 18 19 22
52 50 49 48 49 49 46 44 42 40 40 41 40 39 37 37 38 37 37 38 36 34 31 28 25 24 25 27 28 28 29 30 30 30 30 30 29 29 26 20 19 21 22
49 48 49 49 50 45 44 42 40 39 38 39 37 37 36 35 34 33 33 33 29 27 26 25 25 26 27 28 29 30 31 31 32 32 32 32 30 29 29 28 26 23 23
46 47 44 43 43 43 41 39 38 37 37 36 36 35 32 31 31 30 29 28 26 26 26 26 26 27 28 30 31 32 33 33 34 34 33 32 32 31 30 30 31 32 32
40 41 40 42 40 38 38 36 35 36 35 34 33 31 29 30 29 29 28 27 27 27 27 26 26 28 31 33 35 35 36 35 35 36 35 34 34 34 34 35 36 36 36
40 39 39 40 36 34 37 34 32 32 31 29 29 28 28 28 29 29 29 28 29 28 28 28 29 32 35 36 37 36 36 37 37 37 37 37 37 37 37 38 40 40 41
35 30 31 36 35 30 32 31 30 29 27 25 27 26 27 27 28 28 28 29 30 30 31 33 34 36 38 38 38 37 37 37 38 39 40 39 39 39 41 42 43 44 45
40 34 31 28 31 31 30 28 26 25 25 26 24 25 25 27 28 27 27 29 30 32 34 36 38 39 38 38 38 38 38 38 40 40 41 41 42 43 44 46 47 47 48
30 29 28 29 30 28 26 24 24 24 26 25 24 24 26 27 28 29 30 32 33 34 36 36 37 38 40 40 40 40 41 42 42 44 44 44 45 46 48 49 50 51 51
Wind_Direction
280 287 291 293 294 295 295 297 297 298 297 298 301 304 306 308 307 310 312 313 313 312 310 309 309 309 306 305 303 302 302 303 302 299 298 297 297 294 290 287 288 287 283
279 283 287 290 291 291 293 294 294 294 295 298 299 303 306 307 307 310 313 312 311 310 309 309 309 306 304 303 301 302 303 303 301 299 298 297 296 293 289 287 285 285 283
277 282 286 286 286 288 291 291 292 295 297 299 301 303 305 306 307 311 312 311 310 309 308 307 306 305 303 302 303 304 303 301 299 298 295 294 291 289 286 283 281 279 278
277 280 282 283 287 289 289 289 293 297 299 300 300 302 303 302 306 310 310 310 309 308 307 306 305 304 304 303 304 302 300 299 298 296 294 293 293 289 286 285 280 276 276
275 279 281 282 284 284 285 289 294 297 298 300 301 301 300 300 305 307 308 308 306 306 304 304 304 303 303 302 300 300 300 298 295 294 291 290 291 287 287 280 276 275 272
275 276 278 279 283 284 286 289 293 295 297 298 299 299 297 300 304 307 308 305 303 302 301 302 301 301 299 299 299 299 300 298 295 293 293 291 288 285 284 277 271 271 271
273 274 276 279 282 285 287 290 292 293 295 296 297 297 297 301 304 305 304 301 300 299 298 298 298 295 296 298 299 300 299 297 296 296 292 291 289 284 281 277 270 265 265
274 276 277 279 282 286 288 289 291 292 294 296 297 295 298 300 304 302 299 298 299 299 298 296 293 295 295 298 299 299 298 298 297 297 296 294 289 281 279 275 269 263 262
274 277 279 280 284 286 285 287 289 291 294 295 293 295 298 300 301 298 295 296 296 295 295 294 294 293 296 297 297 298 296 297 297 299 297 294 290 282 274 271 267 259 251
273 276 277 280 282 282 284 286 288 291 293 291 292 294 298 299 300 298 295 296 295 294 292 291 293 295 295 295 296 298 298 300 302 301 301 301 301 293 279 263 263 253 247
271 272 275 277 277 280 283 285 287 290 290 292 292 295 297 297 295 294 295 295 294 292 293 293 293 294 295 297 299 300 302 305 304 305 311 312 303 293 286 277 266 269 246
267 269 273 272 278 281 282 285 287 290 290 291 293 297 297 294 293 293 295 294 291 290 293 294 294 294 296 299 299 300 304 305 307 306 312 314 309 294 281 273 266 261 266
266 268 271 275 279 282 283 284 286 287 289 293 295 295 294 292 293 294 294 293 289 290 292 293 295 297 300 300 299 300 304 308 306 307 315 320 317 303 288 280 271 278 266
268 271 274 278 279 280 280 280 282 287 292 293 293 292 289 290 292 294 295 295 292 293 294 296 296 298 299 299 298 301 303 309 307 306 310 321 319 321 293 279 265 279 277
269 271 273 275 276 276 277 280 285 288 292 291 289 288 289 290 292 295 295 294 293 293 294 295 296 297 298 298 297 299 302 308 309 296 304 314 323 333 319 290 251 259 275
268 270 271 272 274 277 278 282 286 290 289 287 286 287 289 291 294 294 293 294 294 295 295 294 296 295 295 296 297 298 301 308 312 311 305 312 316 330 321 297 249 245 259
266 268 270 273 275 277 280 284 287 287 286 286 287 288 290 291 293 294 296 297 297 296 295 294 292 290 292 294 296 296 301 303 308 314 320 318 312 313 323 305 273 261 244
264 266 270 271 273 277 283 284 283 283 284 285 286 288 289 291 293 295 296 297 296 298 297 293 290 289 291 292 293 296 300 301 305 310 313 315 317 320 313 310 280 269 260
265 266 269 272 274 280 280 281 281 280 281 283 285 286 288 292 293 295 296 296 297 297 295 291 291 291 291 292 295 298 299 300 303 305 306 308 311 314 312 306 287 276 265
267 268 270 272 275 275 278 278 277 278 280 282 282 285 289 292 292 294 295 294 294 295 294 295 294 294 294 296 298 297 297 298 301 302 302 304 306 305 305 302 297 287 277
269 271 270 270 271 274 274 274 276 279 279 280 284 287 290 291 293 295 295 293 295 293 293 292 293 294 297 299 298 297 297 297 298 299 299 300 301 300 299 296 294 294 291
269 269 269 269 272 272 272 273 275 276 277 281 287 288 291 292 294 295 293 293 293 291 290 289 291 298 300 299 298 298 297 297 297 297 298 299 299 297 295 294 292 291 289
263 263 266 265 264 267 268 268 270 273 278 282 285 288 291 294 296 295 296 296 294 293 291 290 293 299 301 300 297 297 296 296 296 297 297 296 294 294 292 291 289 288 288
267 262 264 264 261 260 264 263 266 271 276 283 286 291 292 294 294 296 296 297 297 295 294 292 293 296 300 299 298 297 296 297 298 298 297 296 294 292 291 289 288 286 284
261 257 257 258 262 256 258 262 267 270 276 279 285 289 293 293 294 296 301 299 298 295 293 293 296 298 299 299 298 298 297 297 298 298 297 294 293 293 291 289 288 286 284
259 259 258 249 250 253 256 261 266 272 273 277 287 292 292 293 294 296 296 297 296 296 296 297 299 300 300 300 299 298 298 297 298 298 298 296 296 295 292 289 287 285 284